Powrót do katalogu

STARLINK-5481

AktywnyŁącznośćVLEO
NORAD 57255·PAYLOAD·🇺🇸 United States

Wystrzelony Jul 7, 2023 z Vandenberg Space Force Base

Loading…

Następne Przeloty (najbliższe 24 godziny)

TLE

ŚwieżeSource: CelesTrak SupGP

Epoka: Sep 14, 2026, 22:13 UTC

1 57255C 23094AP  26257.92618056  .00021827  00000+0  79049-3 0  2579
2 57255  43.0022  30.8585 0001576 275.5341 132.3453 15.27571352    12

Śledź STARLINK-5481 w czasie rzeczywistym z AllMySat

Download on the App Store